Flag for Brazil Weather past 2 weeks in Campinas, São Paulo, Brazil

Now
59 °F

Sunny.


Feels Like: 57 °F
Forecast: 56 / 81 °F
Wind: 9 mph from East

Location: Campinas Aeroporto

Current Time: Aug 21, 2014 at 9:16:45 AM

Latest Report: Aug 21, 2014 at 8:00 AM


Visibility: 10 mi

Pressure: 30.24 "Hg

Humidity: 82%

Dew point: 54 °F

Location of CampinasLocation

Historic Weather in Campinas — Graph

°F

Campinas temperature yesterday

Maximum temperature yesterday: 82 °F (at 4:00 PM)
Minimum temperature yesterday: 55 °F (at 6:00 AM)
Average temperature yesterday: 66 °F

Past Weeks' High & Low Weather Summary

 TemperatureHumidityPressure
High86 °F (Aug 12, 2:00 PM)94% (Aug 17, 3:00 AM)30.36 "Hg (Aug 17, 3:00 AM)
Low52 °F (Aug 7, 6:00 AM)15% (Aug 11, 4:00 PM)30.01 "Hg (Aug 13, 3:00 AM)
Average66 °F63%30.20 "Hg
* Reported Aug 6 8:00 AM — Aug 21 8:00 AM, Campinas, Weather by CustomWeather, © 2014

Note: Actual official high and low records may vary slightly from our data, if they occured in-between our weather recording intervals... More about our weather records

Advertising

Campinas weather history for previous 24 hours

 ConditionsComfort  
Time TempWeatherWind HumidityBarometerVisibility
8:00 AM
Aug 21
59 °FSunny.9 mph82%30.24 "Hg10 mi
7:00 AM57 °FSunny.8 mph88%30.21 "Hg10 mi
6:00 AM57 °FSunny.9 mph88%30.21 "Hg10 mi
5:00 AM57 °FClear.12 mph88%30.18 "Hg10 mi
4:00 AM57 °FClear.12 mph88%30.18 "Hg10 mi
3:00 AM59 °FClear.15 mph82%30.18 "Hg10 mi
2:00 AM59 °FClear.15 mph88%30.18 "Hg10 mi
1:00 AM59 °FClear.17 mph88%30.21 "Hg10 mi
12:00 AM61 °FClear.16 mph83%30.21 "Hg10 mi
11:00 PM
Aug 20
61 °FClear.17 mph83%30.21 "Hg10 mi
10:00 PM63 °FClear.16 mph77%30.21 "Hg10 mi
9:00 PM64 °FClear.18 mph78%30.21 "Hg10 mi
8:00 PM68 °FClear.16 mph69%30.18 "Hg10 mi
7:00 PM72 °FClear.12 mph41%30.18 "Hg10 mi
6:00 PM75 °FClear.10 mph36%30.15 "Hg10 mi
5:00 PM81 °FClear.8 mph26%30.15 "Hg10 mi
4:00 PM82 °FSunny.7 mph25%30.15 "Hg10 mi
3:00 PM81 °FSunny.8 mph23%30.15 "Hg10 mi
2:00 PM81 °FSunny.5 mph28%30.18 "Hg10 mi
1:00 PM79 °FSunny.6 mph32%30.21 "Hg10 mi
12:00 PM75 °FSunny.6 mph44%30.24 "Hg10 mi
11:00 AM70 °FSunny.8 mph57%30.27 "Hg10 mi
10:00 AM64 °FSunny.14 mph68%30.27 "Hg10 mi
9:00 AM61 °FPassing clouds.9 mph77%30.27 "Hg5 mi
Weather by CustomWeather, © 2014

See weather overviewHow to use our weather pages